This is the latest recevied weather packets stored in our database for station/object N4CRH-13. If no packets are shown the sender has not sent any weather packets the latest 10 day(s).
| Time | Temp. | Humidity | Pressure | Rain* | Wind** | Luminosity | Snow |
|---|---|---|---|---|---|---|---|
| 1778338226 | 15° C | 33% | 1294.2 hPa | 0 mm | - | 338 W/m² | - |
| 1778337923 | 15° C | 34% | 1294.5 hPa | 0 mm | - | 156 W/m² | - |
| 1778337620 | 15° C | 37% | 1294.5 hPa | 0 mm | - | 181 W/m² | - |
| 1778337317 | 15° C | 34% | 1294.5 hPa | 0 mm | - | 244 W/m² | - |
| 1778337015 | 15.56° C | 33% | 1294.3 hPa | 0 mm | - | 306 W/m² | - |
| 1778336710 | 15° C | 36% | 1294.5 hPa | 0 mm | - | 241 W/m² | - |
| 1778336406 | 15° C | 37% | 1294.6 hPa | 0 mm | - | 208 W/m² | - |
| 1778336103 | 15° C | 35% | 1294.7 hPa | 0 mm | - | 220 W/m² | - |
| 1778335800 | 14.44° C | 40% | 1294.5 hPa | 0 mm | - | 272 W/m² | - |
| 1778335496 | 14.44° C | 42% | 1294.6 hPa | 0 mm | - | 167 W/m² | - |
| 1778335194 | 13.89° C | 49% | 1294.5 hPa | 0 mm | - | 270 W/m² | - |
| 1778334891 | 11.67° C | 55% | 1294.5 hPa | 0 mm | - | 267 W/m² | - |
| 1778334588 | 11.67° C | 51% | 1294.3 hPa | 0 mm | - | 77 W/m² | - |
| 1778334286 | 10° C | 50% | 1294.2 hPa | 0 mm | - | 66 W/m² | - |
| 1778333983 | 10° C | 65% | 1294.3 hPa | 0 mm | - | 81 W/m² | - |
| 1778333679 | 9.44° C | 67% | 1294.5 hPa | 0 mm | - | 90 W/m² | - |
| 1778333378 | 9.44° C | 71% | 1294.1 hPa | 0 mm | - | 82 W/m² | - |
| 1778333075 | 9.44° C | 70% | 1294.2 hPa | 0 mm | - | 74 W/m² | - |
| 1778332772 | 10° C | 66% | 1294.2 hPa | 0 mm | - | 64 W/m² | - |
| 1778332469 | 10° C | 66% | 1293.7 hPa | 0 mm | - | 59 W/m² | - |
| 1778332166 | 11.11° C | 61% | 1294.1 hPa | 0 mm | - | 48 W/m² | - |
| 1778331861 | 11.67° C | 56% | 1294 hPa | 0 mm | - | 47 W/m² | - |
| 1778331559 | 10.56° C | 65% | 1293.9 hPa | 0 mm | - | 98 W/m² | - |
| 1778331256 | 10° C | 61% | 1293.9 hPa | 0 mm | - | 97 W/m² | - |
| 1778330951 | 8.33° C | 67% | 1293.6 hPa | 0 mm | - | 101 W/m² | - |
* Rain latest hour (hover to see other rain measurements)
** Current wind speed in m/s (hover to see current wind gust speed)